Volver al catálogo

STARLINK-4283

ActivoComunicacionesVLEO
NORAD 53016·PAYLOAD·🇺🇸 United States

Lanzado Jul 7, 2022 desde Cape Canaveral Space Force Station

Loading…

Próximos Pases (próximas 24 horas)

TLE

ActualizadoSource: CelesTrak SupGP

Época: Sep 15, 2026, 01:38 UTC

1 53016C 22076AG  26258.06854167  .00042104  00000+0  13541-2 0  2586
2 53016  53.1568 302.1088 0000899  70.8975 248.2928 15.31678062    14

Sigue STARLINK-4283 en tiempo real con AllMySat

Download on the App Store